Location: Newark
(12.4436°N, 0.6167°W)
Time: 23:52:08
(UTC+00:00)

Vanguard 2 - Pass Details

Date: 09 December 2019
Orbit: 553 x 2938 km, 32.9° (Epoch: 22 January)

Event Time Altitude Azimuth Distance (km) Brightness Sun altitude
Rises 03:18:08 0° 281° (W) 6,281 - -40.6°
Reaches altitude 10° 03:22:40 10° 289° (WNW) 5,489 - -39.6°
Exits shadow 03:36:23 37° 341° (NNW) 3,980 10.7 -36.4°
Maximum altitude 03:38:07 37° 351° (N) 3,946 10.8 -36.0°
Drops below altitude 10° 03:53:00 10° 54° (NE) 5,279 12.1 -32.6°
Sets 03:57:16 0° 63° (ENE) 6,024 12.7 -31.6°
